Salt Lake City, UT

10:44 PM MDT on June 26, 2017 (GMT -0600)
Salt Lake City International

Weather History for KSLC - January, 2013

Change the Weather History Date:

Tuesday, January 29, 2013

  Actual Average Record
Temperature  
Mean Temperature 27 °F 30 °F  
Max Temperature 30 °F 39 °F 55 °F (1911)
Min Temperature 23 °F 22 °F -12 °F (1949)
Degree Days  
Heating Degree Days 38 35  
Month to date heating degree days 1344 1034  
Since 1 July heating degree days 3159 3328  
Cooling Degree Days 0 0  
Month to date cooling degree days 0 0  
Year to date cooling degree days 0 0  
Moisture  
Dew Point 22 °F    
Average Humidity 82    
Maximum Humidity 100    
Minimum Humidity 63    
Precipitation  
Precipitation 0.10 in 0.04 in 0.51 in (2014)
Month to date precipitation 1.39 1.17  
Year to date precipitation 1.39 1.17  
Snow  
Snow 1.90 in 0.40 in 9.90 in (1980)
Month to date snowfall 22.3 11.8  
Since 1 July snowfall 50.9 34.0  
Snow Depth 10.00 in    
Sea Level Pressure  
Sea Level Pressure 30.04 in    
Wind  
Wind Speed 8 mph (SSE)    
Max Wind Speed 20 mph    
Max Gust Speed 25 mph    
Visibility 5 miles    
Events Snow    
T = Trace of Precipitation, MM = Missing Value Source: NWS Daily Summary

Daily Weather History Graph

Daily Weather History Graph

Search for Another Location

Airport or City:

Trip Planner

Search our weather history database for the weather conditions in past years. The results will help you decide how hot, cold, wet, or windy it might be!

Date:

Astronomy

Jan. 29, 2013 Rise Set
Actual Time 7:40 AM MST 5:42 PM MST
Civil Twilight 7:11 AM MST 6:11 PM MST
Nautical Twilight 6:38 AM MST 6:44 PM MST
Astronomical Twilight 6:06 AM MST 7:16 PM MST
Moon 8:43 PM MST (1/29) 8:38 AM MST (1/29)
Length of Visible Light 10h 59m
Length of Day
10h 01m
Waning Gibbous, 93% of the Moon is Illuminated
Jan 29
Waning Gibbous
Feb 3
Last Quarter
Feb 10
New
Feb 17
First Quarter
Feb 25
Full

Hourly Weather History & Observations

Time (MST) Temp. Windchill Dew Point Humidity Pressure Visibility Wind Dir Wind Speed Gust Speed Precip Events Conditions
12:53 AM 26.1 °F 19.4 °F 16.0 °F 66% 29.99 in 10.0 mi SW 5.8 mph - N/A   Overcast
1:53 AM 26.1 °F 19.4 °F 16.0 °F 66% 29.97 in 10.0 mi SW 5.8 mph - N/A   Overcast
2:53 AM 26.1 °F 16.8 °F 17.1 °F 69% 29.96 in 10.0 mi SSE 9.2 mph - N/A   Overcast
3:53 AM 26.1 °F 15.0 °F 17.1 °F 69% 29.94 in 6.0 mi South 12.7 mph - 0.00 in Snow Light Snow
4:53 AM 25.0 °F 13.1 °F 19.0 °F 78% 29.93 in 2.5 mi South 13.8 mph - 0.00 in Snow Light Snow
5:16 AM 25.0 °F 13.6 °F 19.9 °F 81% 29.87 in 3.0 mi South 12.7 mph - 0.00 in Snow Light Snow
5:53 AM 25.0 °F 13.6 °F 19.0 °F 78% 29.93 in 3.0 mi South 12.7 mph 21.9 mph 0.00 in Snow Light Snow
6:45 AM 25.0 °F 14.8 °F 19.0 °F 78% 29.87 in 3.0 mi SSE 10.4 mph - 0.00 in Snow Light Snow
6:53 AM 25.0 °F 13.6 °F 19.0 °F 78% 29.94 in 4.0 mi SSE 12.7 mph - 0.00 in Snow Light Snow
7:53 AM 26.1 °F 14.0 °F 18.0 °F 71% 29.94 in 8.0 mi SSE 15.0 mph - 0.00 in Snow Light Snow
8:01 AM 26.1 °F 14.5 °F 18.0 °F 71% 29.88 in 2.5 mi South 13.8 mph - 0.00 in Snow Light Snow
8:51 AM 24.8 °F 11.5 °F 19.4 °F 80% 29.88 in 3.0 mi SSE 17.3 mph - 0.00 in Snow Light Snow
8:53 AM 25.0 °F 12.2 °F 19.9 °F 81% 29.95 in 3.0 mi South 16.1 mph - 0.00 in Snow Light Snow
9:53 AM 25.0 °F 11.7 °F 19.9 °F 81% 29.96 in 3.0 mi South 17.3 mph - 0.00 in Snow Light Snow
10:40 AM 25.0 °F 13.6 °F 19.9 °F 81% 29.91 in 2.5 mi South 12.7 mph - 0.00 in Snow Light Snow
10:53 AM 25.0 °F 13.1 °F 21.0 °F 85% 29.99 in 1.5 mi South 13.8 mph - 0.01 in Snow Light Snow
11:18 AM 25.0 °F 14.2 °F 21.0 °F 85% 29.93 in 0.8 mi SSE 11.5 mph - 0.01 in Snow Light Snow
11:27 AM 25.0 °F 14.2 °F 21.9 °F 88% 29.93 in 0.8 mi SSE 11.5 mph - 0.01 in Snow Light Snow
11:53 AM 25.0 °F 16.3 °F 21.9 °F 88% 30.01 in 0.8 mi South 8.1 mph - 0.03 in Snow Light Snow
12:49 PM 26.6 °F 17.5 °F 23.0 °F 86% 29.95 in 1.0 mi SSW 9.2 mph - 0.03 in Snow Light Snow
12:53 PM 26.1 °F 15.6 °F 23.0 °F 88% 30.02 in 1.0 mi SSW 11.5 mph - 0.03 in Snow Light Snow
1:05 PM 26.1 °F 18.4 °F 23.0 °F 88% 29.96 in 2.5 mi South 6.9 mph - 0.00 in Snow Light Snow
1:53 PM 27.0 °F 18.7 °F 23.0 °F 85% 30.03 in 10.0 mi South 8.1 mph - 0.00 in   Mostly Cloudy
2:33 PM 27.0 °F 19.5 °F 23.0 °F 85% 29.98 in 10.0 mi SSE 6.9 mph - N/A   Mostly Cloudy
2:53 PM 28.0 °F 21.7 °F 23.0 °F 81% 30.05 in 10.0 mi SSE 5.8 mph - N/A   Mostly Cloudy
3:53 PM 27.0 °F 21.6 °F 21.9 °F 81% 30.08 in 10.0 mi SSE 4.6 mph - N/A   Mostly Cloudy
4:53 PM 30.0 °F 24.1 °F 25.0 °F 82% 30.10 in 10.0 mi WNW 5.8 mph - N/A   Mostly Cloudy
5:53 PM 25.0 °F 18.1 °F 23.0 °F 92% 30.15 in 10.0 mi West 5.8 mph - N/A   Mostly Cloudy
6:53 PM 24.1 °F - 21.9 °F 91% 30.19 in 10.0 mi Calm Calm - N/A   Mostly Cloudy
7:53 PM 25.0 °F 20.7 °F 23.0 °F 92% 30.20 in 10.0 mi East 3.5 mph - N/A   Mostly Cloudy
8:35 PM 26.1 °F - 24.1 °F 92% 30.15 in 10.0 mi Calm Calm - N/A   Overcast
8:53 PM 27.0 °F - 25.0 °F 92% 30.23 in 8.0 mi Calm Calm - N/A   Overcast
9:04 PM 27.0 °F - 25.0 °F 92% 30.16 in 6.0 mi Calm Calm - 0.00 in Snow Light Snow
9:23 PM 27.0 °F - 25.0 °F 92% 30.16 in 2.0 mi Calm Calm - 0.00 in Snow Light Snow
9:51 PM 26.6 °F - 24.8 °F 93% 30.18 in 2.0 mi Calm Calm - 0.00 in Snow Light Snow
9:53 PM 27.0 °F - 25.0 °F 92% 30.25 in 2.0 mi Calm Calm - 0.00 in Snow Light Snow
10:26 PM 27.0 °F 21.6 °F 26.1 °F 96% 30.16 in 2.0 mi SE 4.6 mph - 0.01 in Snow Light Snow
10:53 PM 28.0 °F 21.7 °F 26.1 °F 92% 30.25 in 2.0 mi SE 5.8 mph - 0.01 in Snow Light Snow
11:01 PM 26.6 °F 20.0 °F 26.6 °F 100% 30.17 in 4.0 mi SE 5.8 mph - N/A Snow Light Snow
11:28 PM 28.0 °F 24.2 °F 26.1 °F 92% 30.18 in 4.0 mi ESE 3.5 mph - 0.00 in Snow Light Snow
11:53 PM 27.0 °F 23.0 °F 26.1 °F 96% 30.26 in 4.0 mi SE 3.5 mph - 0.00 in Snow Light Snow